QPF
0.00 0.00 0.00 0.00 0.00 0.00 0.01 0.02 0.05 0.04 0.01 0.00 0.00 0.00 0.00 0.00 0.00 0.00 0.00 0.01 0.02 0.03 0.05 0.06 0.06 0.07 0.07 0.08 0.10 0.12 0.12 0.10 0.07 0.05 0.06 0.09 0.11 0.26
0.00 0.00 0.00 0.00 0.00 0.00 0.01 0.02 0.04 0.05 0.03 0.00 0.00 0.00 0.00 0.00 0.00 0.00 0.00 0.00 0.01 0.01 0.02 0.03 0.05 0.05 0.05 0.05 0.06 0.08 0.09 0.08 0.07 0.05 0.04 0.07 0.10 0.16
0.00 0.00 0.00 0.00 0.01 0.01 0.02 0.02 0.03 0.03 0.04 0.01 0.00 0.00 0.00 0.00 0.00 0.00 0.00 0.00 0.00 0.00 0.01 0.01 0.03 0.04 0.04 0.04 0.04 0.05 0.06 0.07 0.06 0.05 0.04 0.05 0.08 0.12
0.00 0.00 0.00 0.00 0.01 0.01 0.02 0.02 0.02 0.01 0.03 0.02 0.00 0.00 0.00 0.00 0.00 0.00 0.00 0.00 0.00 0.00 0.00 0.01 0.01 0.02 0.03 0.03 0.03 0.03 0.04 0.05 0.04 0.04 0.03 0.03 0.05 0.10
0.00 0.01 0.01 0.01 0.01 0.01 0.01 0.01 0.01 0.01 0.02 0.03 0.02 0.00 0.00 0.00 0.00 0.00 0.00 0.00 0.00 0.00 0.00 0.00 0.01 0.01 0.02 0.02 0.02 0.02 0.02 0.02 0.03 0.02 0.02 0.02 0.04 0.07
0.01 0.01 0.01 0.01 0.01 0.01 0.02 0.02 0.02 0.03 0.03 0.04 0.03 0.01 0.00 0.00 0.01 0.01 0.00 0.00 0.00 0.00 0.00 0.00 0.00 0.00 0.01 0.01 0.01 0.02 0.01 0.01 0.01 0.01 0.01 0.01 0.02 0.04
0.01 0.01 0.00 0.00 0.01 0.03 0.05 0.05 0.06 0.07 0.07 0.07 0.05 0.03 0.02 0.01 0.02 0.01 0.01 0.00 0.00 0.00 0.00 0.00 0.00 0.00 0.00 0.00 0.01 0.01 0.01 0.01 0.01 0.01 0.01 0.00 0.01 0.03
0.01 0.00 0.00 0.00 0.00 0.01 0.02 0.02 0.04 0.09 0.12 0.09 0.06 0.04 0.02 0.02 0.03 0.02 0.02 0.02 0.01 0.00 0.01 0.00 0.00 0.00 0.00 0.00 0.00 0.00 0.00 0.01 0.01 0.00 0.00 0.00 0.01 0.01
0.00 0.00 0.00 0.00 0.00 0.00 0.01 0.02 0.03 0.03 0.03 0.04 0.05 0.03 0.02 0.02 0.03 0.02 0.02 0.02 0.01 0.00 0.01 0.01 0.00 0.00 0.00 0.00 0.00 0.00 0.00 0.00 0.00 0.00 0.00 0.00 0.00 0.01
0.00 0.00 0.00 0.00 0.00 0.02 0.09 0.08 0.03 0.01 0.01 0.02 0.04 0.04 0.05 0.06 0.09 0.08 0.06 0.04 0.01 0.00 0.02 0.02 0.00 0.00 0.00 0.00 0.00 0.00 0.00 0.00 0.00 0.00 0.00 0.00 0.00 0.00
0.00 0.00 0.00 0.00 0.01 0.05 0.08 0.04 0.01 0.00 0.01 0.02 0.03 0.04 0.05 0.06 0.08 0.11 0.07 0.04 0.02 0.00 0.01 0.02 0.00 0.00 0.00 0.00 0.00 0.00 0.00 0.00 0.00 0.00 0.00 0.00 0.01 0.01
0.00 0.00 0.00 0.00 0.02 0.04 0.03 0.02 0.01 0.02 0.02 0.01 0.00 0.01 0.01 0.01 0.02 0.05 0.05 0.04 0.02 0.01 0.01 0.02 0.01 0.02 0.01 0.00 0.00 0.00 0.00 0.00 0.00 0.00 0.00 0.00 0.01 0.01
0.01 0.00 0.00 0.01 0.02 0.02 0.02 0.01 0.02 0.03 0.02 0.01 0.01 0.01 0.01 0.01 0.01 0.02 0.03 0.04 0.03 0.01 0.01 0.02 0.02 0.02 0.02 0.01 0.00 0.00 0.00 0.00 0.00 0.00 0.00 0.00 0.01 0.02
0.01 0.00 0.00 0.01 0.01 0.01 0.01 0.01 0.02 0.01 0.00 0.01 0.01 0.01 0.01 0.01 0.02 0.02 0.02 0.03 0.03 0.01 0.01 0.01 0.01 0.01 0.02 0.02 0.01 0.01 0.01 0.01 0.01 0.00 0.00 0.01 0.01 0.02
0.00 0.00 0.00 0.00 0.00 0.00 0.00 0.01 0.00 0.00 0.00 0.01 0.01 0.01 0.02 0.02 0.02 0.02 0.01 0.02 0.02 0.01 0.01 0.01 0.02 0.01 0.02 0.02 0.01 0.01 0.01 0.01 0.01 0.01 0.01 0.01 0.01 0.02
0.00 0.00 0.00 0.00 0.00 0.00 0.00 0.00 0.00 0.00 0.01 0.01 0.01 0.02 0.02 0.02 0.03 0.03 0.03 0.02 0.02 0.01 0.01 0.02 0.02 0.02 0.02 0.01 0.01 0.01 0.01 0.02 0.02 0.02 0.02 0.02 0.02 0.02
0.01 0.00 0.00 0.00 0.00 0.00 0.00 0.00 0.00 0.00 0.00 0.00 0.01 0.01 0.02 0.03 0.03 0.03 0.03 0.03 0.03 0.02 0.02 0.02 0.02 0.02 0.02 0.01 0.01 0.01 0.01 0.02 0.02 0.02 0.03 0.04 0.04 0.03
0.00 0.00 0.00 0.00 0.00 0.00 0.00 0.00 0.00 0.00 0.00 0.01 0.01 0.01 0.02 0.03 0.04 0.04 0.04 0.04 0.04 0.04 0.04 0.04 0.04 0.04 0.04 0.02 0.01 0.01 0.01 0.02 0.03 0.03 0.04 0.05 0.06 0.05
0.00 0.00 0.00 0.00 0.00 0.00 0.00 0.00 0.00 0.00 0.00 0.01 0.01 0.02 0.02 0.03 0.03 0.04 0.04 0.05 0.04 0.06 0.06 0.06 0.07 0.06 0.04 0.02 0.01 0.01 0.01 0.02 0.04 0.05 0.05 0.06 0.07 0.06
0.00 0.00 0.00 0.00 0.00 0.01 0.01 0.01 0.00 0.00 0.00 0.01 0.01 0.01 0.02 0.03 0.03 0.04 0.05 0.05 0.06 0.07 0.07 0.07 0.08 0.07 0.05 0.03 0.02 0.02 0.02 0.03 0.04 0.06 0.07 0.08 0.11 0.11
0.00 0.00 0.00 0.00 0.00 0.01 0.01 0.01 0.01 0.01 0.01 0.01 0.01 0.01 0.02 0.03 0.04 0.05 0.06 0.07 0.07 0.07 0.08 0.09 0.09 0.09 0.08 0.06 0.04 0.03 0.02 0.03 0.05 0.07 0.09 0.13 0.19 0.20
0.00 0.00 0.00 0.00 0.01 0.01 0.01 0.01 0.01 0.01 0.01 0.01 0.01 0.01 0.01 0.03 0.04 0.05 0.06 0.07 0.07 0.08 0.09 0.10 0.11 0.11 0.09 0.06 0.04 0.03 0.04 0.05 0.08 0.11 0.14 0.16 0.21 0.20
0.00 0.00 0.00 0.00 0.00 0.01 0.01 0.01 0.01 0.01 0.01 0.01 0.01 0.01 0.01 0.02 0.03 0.04 0.06 0.07 0.08 0.09 0.11 0.12 0.12 0.13 0.10 0.07 0.05 0.04 0.06 0.09 0.12 0.16 0.19 0.20 0.22 0.16
MSLP
1024.44 1024.41 1024.25 1023.94 1023.44 1022.77 1021.95 1021.02 1020.05 1019.09 1018.20 1017.40 1016.73 1016.18 1015.71 1015.31 1014.92 1014.50 1014.01 1013.42 1012.70 1011.87 1010.93 1009.90 1008.83 1007.76 1006.73 1005.79 1004.97 1004.29 1003.76 1003.37 1003.10 1002.92 1002.81 1002.74 1002.69 1002.69
1023.28 1023.22 1023.05 1022.73 1022.24 1021.58 1020.79 1019.89 1018.95 1018.01 1017.13 1016.34 1015.66 1015.10 1014.62 1014.22 1013.83 1013.43 1012.99 1012.46 1011.83 1011.10 1010.27 1009.35 1008.39 1007.40 1006.44 1005.54 1004.75 1004.07 1003.54 1003.13 1002.85 1002.65 1002.52 1002.43 1002.36 1002.31
1022.03 1021.93 1021.73 1021.40 1020.92 1020.29 1019.54 1018.69 1017.80 1016.92 1016.07 1015.31 1014.63 1014.06 1013.57 1013.14 1012.74 1012.34 1011.90 1011.41 1010.84 1010.19 1009.45 1008.64 1007.78 1006.89 1006.01 1005.18 1004.45 1003.82 1003.31 1002.94 1002.67 1002.50 1002.38 1002.29 1002.21 1002.12
1020.74 1020.59 1020.36 1020.01 1019.54 1018.95 1018.25 1017.47 1016.66 1015.83 1015.05 1014.32 1013.66 1013.08 1012.56 1012.10 1011.67 1011.24 1010.80 1010.31 1009.78 1009.18 1008.52 1007.79 1007.02 1006.23 1005.45 1004.71 1004.05 1003.49 1003.06 1002.74 1002.54 1002.42 1002.35 1002.29 1002.21 1002.10
1019.44 1019.25 1018.98 1018.62 1018.17 1017.61 1016.97 1016.26 1015.53 1014.78 1014.05 1013.36 1012.73 1012.14 1011.61 1011.11 1010.64 1010.18 1009.71 1009.22 1008.70 1008.14 1007.53 1006.88 1006.19 1005.48 1004.78 1004.13 1003.55 1003.08 1002.73 1002.51 1002.39 1002.34 1002.34 1002.33 1002.28 1002.17
1018.18 1017.94 1017.65 1017.28 1016.83 1016.31 1015.72 1015.09 1014.42 1013.75 1013.08 1012.44 1011.82 1011.24 1010.69 1010.16 1009.66 1009.17 1008.68 1008.19 1007.67 1007.14 1006.57 1005.96 1005.33 1004.69 1004.06 1003.48 1002.98 1002.59 1002.32 1002.18 1002.14 1002.18 1002.26 1002.32 1002.31 1002.22
1016.97 1016.70 1016.38 1016.00 1015.57 1015.07 1014.53 1013.95 1013.35 1012.73 1012.12 1011.51 1010.92 1010.35 1009.79 1009.25 1008.73 1008.22 1007.72 1007.23 1006.73 1006.21 1005.67 1005.10 1004.51 1003.92 1003.33 1002.80 1002.35 1002.00 1001.79 1001.71 1001.74 1001.86 1002.01 1002.14 1002.19 1002.15
1015.83 1015.53 1015.19 1014.81 1014.38 1013.90 1013.40 1012.86 1012.30 1011.73 1011.16 1010.58 1010.01 1009.44 1008.89 1008.35 1007.83 1007.32 1006.83 1006.35 1005.87 1005.38 1004.87 1004.34 1003.78 1003.20 1002.64 1002.12 1001.68 1001.35 1001.15 1001.10 1001.16 1001.32 1001.52 1001.71 1001.83 1001.85
1014.75 1014.44 1014.09 1013.70 1013.27 1012.81 1012.33 1011.82 1011.29 1010.74 1010.19 1009.63 1009.07 1008.52 1007.98 1007.45 1006.94 1006.46 1005.99 1005.55 1005.11 1004.65 1004.18 1003.67 1003.13 1002.57 1002.00 1001.47 1001.01 1000.66 1000.43 1000.35 1000.41 1000.57 1000.79 1001.02 1001.20 1001.28
1013.73 1013.41 1013.06 1012.68 1012.26 1011.82 1011.35 1010.85 1010.33 1009.80 1009.25 1008.70 1008.14 1007.59 1007.05 1006.54 1006.06 1005.61 1005.18 1004.78 1004.39 1003.99 1003.56 1003.09 1002.57 1002.01 1001.44 1000.88 1000.37 999.96 999.67 999.53 999.53 999.65 999.86 1000.09 1000.31 1000.46
1012.76 1012.46 1012.13 1011.76 1011.37 1010.94 1010.48 1009.99 1009.47 1008.93 1008.37 1007.81 1007.24 1006.68 1006.15 1005.65 1005.18 1004.77 1004.39 1004.04 1003.70 1003.36 1002.98 1002.55 1002.06 1001.52 1000.94 1000.35 999.79 999.31 998.94 998.70 998.62 998.66 998.82 999.04 999.27 999.47
1011.83 1011.57 1011.28 1010.95 1010.59 1010.19 1009.74 1009.26 1008.73 1008.18 1007.60 1007.01 1006.42 1005.85 1005.30 1004.80 1004.34 1003.95 1003.60 1003.29 1003.01 1002.72 1002.40 1002.02 1001.58 1001.06 1000.49 999.88 999.28 998.74 998.28 997.95 997.76 997.72 997.80 997.97 998.18 998.41
1010.96 1010.76 1010.54 1010.27 1009.95 1009.58 1009.16 1008.68 1008.15 1007.58 1006.98 1006.36 1005.74 1005.14 1004.56 1004.04 1003.58 1003.18 1002.84 1002.56 1002.31 1002.06 1001.79 1001.46 1001.07 1000.59 1000.05 999.45 998.83 998.25 997.73 997.31 997.03 996.89 996.88 996.98 997.17 997.39
1010.15 1010.05 1009.90 1009.70 1009.45 1009.12 1008.72 1008.25 1007.72 1007.14 1006.51 1005.86 1005.21 1004.57 1003.96 1003.40 1002.91 1002.48 1002.13 1001.84 1001.59 1001.37 1001.13 1000.84 1000.50 1000.08 999.58 999.01 998.41 997.82 997.26 996.79 996.43 996.21 996.11 996.15 996.28 996.49
1009.43 1009.43 1009.38 1009.25 1009.06 1008.77 1008.40 1007.95 1007.42 1006.83 1006.19 1005.52 1004.84 1004.16 1003.51 1002.90 1002.36 1001.88 1001.48 1001.15 1000.88 1000.63 1000.40 1000.14 999.83 999.46 999.02 998.51 997.95 997.38 996.83 996.34 995.94 995.65 995.49 995.46 995.54 995.70
1008.82 1008.91 1008.94 1008.90 1008.75 1008.50 1008.16 1007.73 1007.21 1006.62 1005.98 1005.30 1004.60 1003.89 1003.20 1002.54 1001.93 1001.39 1000.91 1000.51 1000.17 999.87 999.61 999.34 999.05 998.72 998.33 997.88 997.39 996.88 996.36 995.89 995.48 995.16 994.95 994.87 994.89 995.02
1008.30 1008.49 1008.59 1008.59 1008.48 1008.26 1007.94 1007.52 1007.01 1006.44 1005.81 1005.14 1004.44 1003.72 1003.00 1002.29 1001.62 1000.98 1000.41 999.90 999.46 999.08 998.75 998.44 998.13 997.82 997.47 997.09 996.66 996.22 995.77 995.34 994.96 994.65 994.42 994.31 994.30 994.39
1007.89 1008.13 1008.27 1008.30 1008.21 1007.99 1007.68 1007.27 1006.78 1006.23 1005.63 1004.98 1004.30 1003.58 1002.85 1002.11 1001.37 1000.65 999.97 999.34 998.77 998.27 997.83 997.44 997.09 996.76 996.43 996.09 995.74 995.38 995.00 994.65 994.32 994.04 993.83 993.72 993.70 993.77
1007.53 1007.80 1007.96 1007.98 1007.88 1007.66 1007.34 1006.94 1006.47 1005.95 1005.38 1004.78 1004.13 1003.44 1002.71 1001.94 1001.15 1000.35 999.56 998.80 998.09 997.45 996.88 996.38 995.96 995.58 995.25 994.94 994.65 994.36 994.07 993.79 993.54 993.33 993.16 993.07 993.07 993.14
1007.19 1007.47 1007.61 1007.61 1007.48 1007.24 1006.91 1006.52 1006.07 1005.59 1005.07 1004.52 1003.92 1003.26 1002.55 1001.77 1000.94 1000.06 999.17 998.28 997.43 996.64 995.93 995.32 994.80 994.36 994.00 993.70 993.45 993.22 993.02 992.83 992.67 992.53 992.44 992.40 992.43 992.54
1006.84 1007.10 1007.21 1007.18 1007.02 1006.75 1006.41 1006.02 1005.60 1005.16 1004.69 1004.19 1003.65 1003.04 1002.34 1001.57 1000.70 999.77 998.78 997.78 996.80 995.88 995.03 994.30 993.67 993.17 992.77 992.47 992.24 992.07 991.94 991.84 991.77 991.72 991.71 991.74 991.84 992.00
1006.43 1006.66 1006.74 1006.68 1006.50 1006.22 1005.87 1005.50 1005.10 1004.70 1004.28 1003.83 1003.34 1002.77 1002.10 1001.32 1000.44 999.46 998.40 997.31 996.22 995.18 994.22 993.38 992.66 992.09 991.65 991.34 991.12 990.99 990.92 990.90 990.91 990.95 991.03 991.15 991.32 991.55
1005.97 1006.17 1006.23 1006.14 1005.94 1005.66 1005.33 1004.97 1004.60 1004.24 1003.86 1003.46 1003.01 1002.46 1001.82 1001.04 1000.14 999.13 998.02 996.87 995.70 994.57 993.52 992.60 991.81 991.18 990.70 990.37 990.16 990.06 990.03 990.07 990.15 990.28 990.44 990.64 990.90 991.21
Thickness
5308 5293 5277 5263 5247 5231 5216 5202 5192 5200 5216 5205 5189 5179 5170 5165 5162 5161 5162 5165 5171 5180 5192 5208 5228 5252 5278 5306 5336 5367 5400 5433 5465 5497 5526 5554 5580 5604
5303 5289 5274 5260 5245 5231 5218 5206 5194 5187 5198 5202 5190 5180 5171 5166 5163 5161 5160 5163 5168 5175 5185 5200 5220 5242 5267 5294 5322 5352 5385 5419 5451 5483 5513 5542 5568 5592
5300 5286 5273 5258 5244 5232 5220 5209 5199 5189 5191 5200 5189 5182 5174 5168 5164 5160 5159 5160 5164 5171 5181 5195 5212 5234 5257 5282 5310 5340 5372 5405 5438 5469 5500 5530 5556 5581
5298 5283 5271 5257 5245 5232 5221 5212 5202 5193 5187 5192 5191 5183 5176 5170 5166 5163 5161 5161 5163 5169 5178 5191 5208 5228 5251 5276 5301 5329 5360 5392 5424 5456 5488 5519 5545 5569
5296 5282 5269 5256 5245 5234 5223 5213 5205 5197 5190 5188 5191 5185 5180 5172 5168 5165 5162 5161 5162 5167 5176 5188 5204 5223 5245 5270 5295 5322 5351 5382 5414 5445 5476 5506 5532 5557
5294 5281 5269 5256 5245 5235 5225 5216 5208 5201 5194 5190 5190 5188 5182 5176 5168 5166 5165 5162 5163 5166 5173 5184 5199 5218 5240 5264 5290 5317 5344 5373 5404 5436 5467 5496 5522 5547
5294 5281 5270 5258 5247 5237 5228 5219 5210 5203 5197 5193 5192 5189 5184 5176 5170 5166 5164 5164 5165 5165 5171 5181 5194 5213 5234 5258 5284 5310 5338 5367 5397 5427 5457 5487 5514 5538
5296 5284 5270 5258 5247 5238 5230 5221 5212 5204 5200 5195 5192 5187 5183 5177 5171 5167 5164 5163 5167 5168 5170 5182 5192 5210 5231 5254 5280 5307 5334 5362 5390 5420 5450 5479 5506 5531
5295 5282 5270 5259 5249 5237 5228 5221 5213 5205 5200 5195 5191 5187 5183 5179 5173 5170 5167 5167 5169 5170 5171 5183 5194 5211 5231 5253 5279 5305 5331 5358 5386 5415 5443 5472 5498 5523
5292 5280 5268 5258 5246 5237 5231 5225 5215 5205 5199 5195 5190 5189 5186 5182 5177 5175 5174 5173 5174 5174 5176 5184 5197 5213 5233 5256 5281 5306 5331 5357 5383 5411 5439 5466 5492 5516
5290 5278 5267 5257 5249 5243 5235 5226 5217 5208 5203 5199 5197 5193 5190 5186 5182 5178 5176 5175 5179 5181 5183 5188 5200 5215 5237 5261 5284 5308 5332 5357 5382 5408 5435 5460 5484 5507
5289 5278 5268 5259 5251 5243 5234 5224 5216 5211 5207 5201 5196 5192 5188 5184 5182 5178 5175 5175 5178 5183 5189 5193 5203 5216 5240 5265 5286 5308 5331 5356 5380 5405 5430 5454 5477 5499
5289 5278 5266 5258 5250 5243 5234 5223 5216 5214 5207 5200 5196 5194 5191 5187 5184 5181 5179 5178 5181 5186 5192 5196 5206 5217 5234 5259 5284 5308 5330 5354 5378 5403 5427 5451 5473 5496
5288 5277 5266 5258 5251 5242 5233 5224 5219 5213 5203 5199 5197 5195 5193 5191 5188 5187 5186 5186 5189 5193 5198 5202 5209 5219 5232 5251 5277 5303 5328 5352 5376 5400 5425 5449 5471 5493
5287 5276 5267 5258 5249 5238 5229 5223 5217 5207 5202 5200 5198 5196 5194 5193 5193 5193 5194 5196 5199 5204 5208 5212 5218 5226 5235 5250 5271 5294 5319 5348 5372 5397 5421 5444 5469 5491
5283 5272 5264 5254 5244 5235 5227 5218 5210 5205 5202 5200 5198 5197 5196 5196 5196 5197 5199 5202 5207 5214 5220 5224 5229 5235 5245 5256 5271 5292 5312 5338 5368 5392 5418 5442 5466 5490
5280 5268 5257 5247 5238 5231 5223 5216 5210 5205 5201 5199 5198 5198 5199 5199 5200 5202 5203 5207 5211 5218 5226 5234 5240 5246 5254 5264 5278 5296 5315 5339 5363 5388 5414 5441 5466 5491
5280 5266 5254 5244 5236 5229 5222 5215 5209 5204 5201 5199 5198 5198 5199 5201 5203 5205 5208 5211 5216 5222 5230 5238 5247 5256 5264 5275 5287 5303 5321 5343 5365 5388 5413 5440 5466 5490
5275 5262 5251 5242 5234 5226 5219 5213 5208 5204 5200 5199 5198 5199 5200 5202 5205 5208 5212 5216 5221 5228 5235 5243 5252 5263 5276 5290 5304 5313 5327 5345 5365 5388 5415 5443 5470 5494
5270 5258 5249 5240 5232 5225 5218 5212 5207 5204 5201 5199 5199 5200 5201 5203 5207 5211 5215 5220 5226 5234 5241 5249 5257 5268 5281 5294 5307 5322 5333 5348 5369 5393 5418 5443 5467 5489
5267 5257 5248 5239 5231 5224 5217 5211 5206 5203 5201 5199 5200 5201 5203 5205 5208 5213 5218 5225 5231 5237 5245 5254 5263 5272 5281 5292 5307 5324 5339 5353 5372 5394 5417 5438 5459 5479
5266 5256 5247 5238 5230 5223 5216 5210 5206 5203 5201 5200 5201 5202 5204 5206 5210 5216 5221 5227 5234 5241 5250 5260 5269 5278 5287 5301 5316 5329 5342 5357 5372 5390 5411 5436 5460 5485
5265 5255 5246 5237 5229 5222 5216 5211 5207 5204 5202 5201 5201 5203 5205 5208 5213 5218 5225 5231 5239 5248 5256 5266 5277 5286 5296 5307 5319 5331 5344 5360 5375 5392 5414 5439 5465 5491